EHI
11 10 10 10 10 9 7 5 5 4 2 1 0 0 0 0 0 0 0 0 0 0 0 0 0 0 0 0 0 0 0 0 0 0 0 1 1 0 0 0 0 0 0
10 10 10 10 10 9 8 7 7 6 4 2 1 0 0 0 0 0 0 0 0 0 0 0 0 0 0 0 0 0 0 0 0 0 0 1 2 1 1 1 0 0 0
10 10 10 10 10 9 9 9 9 7 5 4 2 1 0 0 0 0 0 0 0 0 0 0 0 0 0 0 0 0 0 0 0 0 0 1 1 1 1 1 0 0 0
10 10 10 10 10 10 10 10 9 7 5 4 2 1 0 0 0 0 0 0 0 0 0 0 0 0 0 0 0 0 0 0 0 0 0 0 0 0 1 1 0 0 0
10 10 10 10 10 10 10 10 10 8 5 4 2 1 0 0 0 0 0 0 0 0 0 0 0 0 0 0 0 0 0 0 0 0 0 0 0 0 0 0 0 0 0
10 10 10 10 10 10 10 11 11 10 8 5 3 1 1 0 0 0 0 0 0 0 0 0 0 0 0 0 0 0 0 0 0 0 0 0 0 0 0 0 0 0 0
9 9 9 10 10 10 11 11 12 13 12 9 6 4 3 1 0 0 0 0 0 0 0 0 0 0 0 0 0 0 0 0 0 0 0 0 0 0 0 0 0 0 0
7 8 8 9 9 10 11 13 14 15 14 12 10 8 5 2 0 0 0 0 0 0 0 0 0 0 0 0 0 0 0 0 0 0 0 0 0 0 0 0 0 0 0
6 7 8 9 10 11 12 15 17 17 15 12 10 8 6 4 1 0 0 0 0 0 0 0 0 0 0 0 0 0 0 0 0 0 0 0 0 0 0 0 0 0 0
6 6 8 10 12 13 15 19 20 19 15 12 8 7 6 4 2 0 0 0 0 0 0 0 0 0 0 0 0 0 0 0 0 0 0 0 0 0 0 0 0 0 0
6 7 9 12 13 14 18 23 23 19 15 11 7 6 6 4 1 0 0 0 0 0 0 0 0 0 0 0 0 0 0 0 0 0 0 0 0 0 0 0 0 0 0
11 11 12 13 11 12 18 23 21 17 12 8 6 5 4 2 1 0 0 0 0 0 0 0 0 0 0 0 0 0 0 0 0 0 0 0 0 0 0 0 0 0 0
19 19 18 15 11 12 16 17 14 11 8 5 3 3 2 1 1 0 0 0 0 0 0 0 0 0 0 0 0 0 0 0 0 0 0 0 0 0 0 0 0 0 0
26 24 21 14 10 13 15 11 8 6 4 1 1 1 1 1 2 1 0 0 0 0 0 0 0 0 0 0 0 0 0 0 0 0 0 0 0 0 0 0 0 0 0
28 23 16 9 7 10 10 7 5 3 1 0 0 0 0 0 1 0 0 0 0 0 0 0 0 0 0 0 0 0 0 0 0 0 0 0 0 0 0 0 0 0 0
26 20 11 4 4 5 4 3 2 1 0 0 0 0 0 0 0 0 0 0 0 0 0 0 0 0 0 0 0 0 0 0 0 0 0 0 0 0 0 0 0 0 0
23 16 7 2 1 1 1 0 0 0 0 0 0 0 0 0 0 0 0 0 0 0 0 0 0 0 0 0 0 0 0 0 0 0 0 0 0 0 0 0 0 0 0
15 8 3 1 0 0 0 0 0 0 0 0 0 0 0 0 0 0 0 0 0 0 0 0 0 0 0 0 0 0 0 0 0 0 0 0 0 0 0 0 0 0 0
5 2 0 1 0 0 0 0 0 0 0 0 0 0 0 0 0 0 0 0 0 0 0 0 0 0 0 0 0 0 0 0 0 0 0 0 0 0 0 0 0 0 0
1 0 0 0 0 0 0 0 0 0 0 0 0 0 0 0 0 0 0 0 0 0 0 0 0 0 0 0 0 0 0 0 0 0 0 0 0 0 0 0 0 0 0
0 0 0 0 0 0 0 0 0 0 0 0 0 0 0 0 0 0 0 0 0 0 0 0 0 0 0 0 0 0 0 0 0 0 0 0 0 0 0 0 0 0 0
0 0 0 0 0 0 0 0 0 0 0 0 0 0 0 0 0 0 0 0 0 0 0 0 0 0 0 0 0 0 0 0 0 0 0 0 0 0 0 0 0 0 0
0 0 0 0 0 0 0 0 0 0 0 0 0 0 0 0 0 0 0 0 0 0 0 0 0 0 0 0 0 0 0 0 0 0 0 0 0 0 0 0 0 0 0
0 0 0 0 0 0 0 0 0 0 0 0 0 0 0 0 0 0 0 0 0 0 0 0 0 0 0 0 0 0 0 0 0 0 0 0 0 0 0 0 0 0 0
0 0 0 0 0 0 0 0 0 0 0 0 0 0 0 0 0 0 0 0 0 0 0 0 0 0 0 0 0 0 0 0 0 0 0 0 0 0 0 0 0 0 0
0 0 0 0 0 0 0 0 0 0 0 0 0 0 0 0 0 0 0 0 0 0 0 0 0 0 0 0 0 0 0 0 0 0 0 0 0 0 0 0 0 0 0
Wind_Speed
3 2 0 1 2 2 3 4 3 3 3 4 5 5 5 6 5 5 6 6 6 6 6 6 6 6 5 4 4 4 4 4 6 5 4 3 3 3 3 2 3 4 5
3 3 2 1 2 3 4 3 3 4 4 5 5 5 6 6 5 6 6 7 6 6 6 6 6 6 6 5 5 5 5 5 5 7 5 4 5 4 4 4 4 4 3
2 2 2 2 3 3 4 4 4 4 5 5 5 6 6 6 6 6 6 7 6 6 6 6 6 7 6 5 6 6 5 6 5 5 5 4 4 4 4 4 4 3 3
2 2 2 3 3 3 4 4 4 5 5 5 6 6 6 6 7 7 7 6 6 6 6 6 7 7 7 6 6 6 6 6 6 5 5 5 4 4 3 3 3 2 3
2 3 3 3 3 4 4 5 5 5 7 5 6 6 6 7 7 6 5 7 5 5 6 7 8 9 9 7 8 5 5 4 4 5 5 5 4 3 3 3 3 2 3
3 3 3 3 4 4 5 5 5 5 5 6 6 7 7 8 3 2 3 5 6 7 7 7 8 10 12 14 14 13 10 8 6 5 5 5 5 4 3 3 2 2 2
4 4 4 4 4 4 6 5 5 5 5 6 6 7 7 7 7 8 8 6 7 7 8 8 10 11 9 6 9 13 13 15 14 9 9 8 6 5 4 4 3 3 3
5 5 4 4 5 4 4 5 5 4 5 6 6 7 7 8 8 9 9 8 8 9 9 9 9 9 10 8 7 7 7 8 11 11 10 10 9 6 5 5 5 4 3
5 4 4 4 4 4 5 5 5 5 6 6 7 7 7 7 8 10 10 7 7 9 10 10 9 9 10 9 7 7 7 7 11 14 14 13 14 11 7 4 4 4 4
4 3 3 3 4 5 5 5 5 5 6 7 8 7 7 8 9 11 11 7 7 8 7 8 10 10 10 8 7 7 8 7 7 8 7 9 10 10 11 8 6 5 4
4 3 4 4 5 6 6 5 5 6 7 7 8 8 8 9 10 11 13 7 7 7 7 6 4 4 7 9 9 7 8 7 6 6 6 6 6 7 8 8 8 7 6
3 4 4 4 6 7 5 5 6 6 8 8 8 8 7 7 7 8 12 14 10 7 7 7 4 2 4 7 8 9 9 7 6 6 7 6 6 6 7 7 8 8 7
4 4 4 5 5 6 6 7 6 7 7 7 6 5 5 4 3 7 10 13 13 9 8 9 8 8 7 8 13 13 9 7 7 8 8 7 6 6 6 6 7 7 6
5 5 5 6 7 7 6 7 7 6 6 5 4 5 5 4 2 2 3 5 8 9 8 9 11 13 12 11 9 8 8 9 8 8 7 6 5 5 5 5 5 5 5
5 5 6 8 8 7 7 7 8 7 7 6 5 5 6 6 2 2 2 4 4 3 4 6 7 7 7 7 7 7 7 8 9 8 7 6 6 5 5 5 5 5 5
5 6 7 7 7 7 6 7 10 12 12 12 12 11 8 8 6 6 7 7 7 5 4 7 8 8 7 6 6 7 7 7 7 7 7 6 6 6 5 4 5 6 6
6 6 7 8 8 7 7 7 7 7 10 12 14 14 13 12 10 10 9 8 8 5 6 8 9 8 7 6 6 6 7 7 6 6 6 6 6 6 5 5 6 6 6
7 8 8 8 8 8 8 8 7 7 6 6 8 12 14 14 14 13 9 5 7 7 8 9 8 7 6 6 6 6 6 5 5 6 6 6 6 6 5 6 6 7 6
8 8 7 7 8 9 8 8 7 7 6 7 5 4 10 12 13 12 7 6 8 8 7 7 7 6 6 6 5 5 5 5 5 5 6 6 6 6 5 6 6 8 7
7 11 11 9 10 9 8 8 7 6 6 6 5 4 3 4 5 5 6 7 8 7 7 7 6 5 5 5 4 5 5 5 5 5 5 5 5 5 6 6 6 6 6
10 10 10 9 9 8 8 8 7 6 6 6 5 4 3 4 6 6 4 5 5 6 5 5 5 5 5 4 4 5 5 4 4 5 5 4 4 4 4 4 5 5 5
10 10 10 10 9 7 7 7 7 7 7 8 5 4 5 6 5 5 4 4 4 4 4 4 4 4 5 4 4 4 4 4 4 4 5 4 4 4 5 5 5 5 5
10 12 11 10 9 8 6 6 7 6 6 6 5 4 4 4 4 4 4 4 3 3 3 3 4 4 4 4 4 3 3 3 3 4 4 4 4 4 4 5 6 6 6
12 13 12 10 8 8 7 6 6 6 5 5 6 5 4 4 3 4 4 3 3 3 3 3 4 5 6 4 3 2 1 1 1 2 4 4 4 3 4 4 5 6 6
13 12 11 9 8 7 7 6 6 6 5 5 5 4 4 4 3 3 3 3 3 4 4 3 3 4 4 5 3 0 2 2 1 1 2 3 4 5 5 6 5 5 6
12 11 10 8 7 7 7 6 6 6 5 5 4 4 4 3 3 3 3 2 3 3 3 2 3 3 3 2 1 2 2 2 1 1 2 2 3 4 4 4 6 6 6
Wind_Direction
196 181 227 263 294 300 286 279 284 291 296 290 287 286 285 281 277 273 272 271 269 269 272 270 264 264 265 270 270 268 264 259 265 271 268 279 271 269 262 251 246 236 223
182 174 199 219 262 275 283 297 302 290 282 278 278 280 280 280 280 278 277 280 278 275 273 273 272 269 261 258 260 262 261 258 258 268 271 276 272 264 252 247 253 243 231
171 181 197 227 252 263 274 276 276 276 276 276 276 275 277 278 275 271 268 269 271 273 274 273 271 269 268 262 260 263 266 267 255 257 262 257 254 257 256 255 255 245 236
175 205 219 229 248 257 262 267 269 271 273 272 271 272 274 275 273 270 270 267 265 266 268 270 271 267 265 264 263 255 259 265 270 267 263 259 253 247 238 240 256 248 239
200 233 238 233 243 254 258 261 263 265 273 274 276 277 276 274 269 269 269 275 283 287 283 277 272 268 263 260 265 265 274 274 274 274 270 266 256 247 240 228 242 245 237
207 240 245 243 251 257 260 260 262 265 270 272 272 275 276 279 287 268 268 289 289 284 281 278 277 270 258 245 242 244 245 252 258 263 271 269 273 274 270 248 240 239 245
206 232 243 246 256 259 271 276 277 278 278 276 275 275 274 274 260 244 242 262 273 273 272 272 275 276 281 266 247 240 242 243 239 244 257 263 271 272 276 275 256 251 245
212 224 235 244 258 264 267 269 271 274 277 277 276 275 272 272 258 238 236 248 264 265 263 261 261 265 271 269 270 262 250 244 235 232 237 244 251 255 244 249 252 256 258
220 221 234 244 258 265 268 268 271 271 274 275 276 270 268 268 253 235 226 253 261 265 262 261 258 258 257 251 250 257 261 260 256 245 229 230 232 237 231 234 237 230 242
232 230 235 243 253 262 267 267 269 269 271 274 275 274 272 271 257 234 217 246 264 271 272 266 261 257 258 240 235 246 256 259 267 275 254 242 236 232 224 219 222 224 228
232 235 235 238 247 251 251 250 254 264 270 273 276 274 268 264 259 234 216 234 258 274 281 283 282 277 252 237 232 243 251 264 274 270 265 251 236 229 224 218 216 217 218
234 245 250 249 261 268 257 252 253 259 268 267 264 266 266 262 252 232 215 221 242 263 274 280 290 300 267 250 239 245 250 255 258 258 255 248 235 227 226 220 214 212 212
243 252 259 264 260 264 266 265 259 254 258 264 266 273 276 271 239 222 219 225 233 242 262 275 285 277 266 252 243 244 244 241 243 246 246 246 240 230 223 220 217 212 211
253 257 259 260 259 257 253 261 264 265 266 270 276 283 284 277 261 205 221 233 236 242 257 270 265 256 249 254 256 236 228 234 236 239 241 244 248 237 225 215 210 201 201
255 262 267 267 266 260 257 252 255 256 260 263 273 281 288 290 283 201 260 275 285 307 304 279 271 261 247 239 239 236 227 223 229 237 240 241 240 236 226 213 205 196 198
255 261 269 273 273 273 270 268 250 244 250 242 239 246 263 266 257 243 250 254 257 254 266 269 270 266 261 254 247 244 236 230 227 227 230 233 237 232 222 211 202 201 204
260 271 277 280 283 283 282 280 280 269 249 244 245 244 243 257 264 263 264 269 263 228 240 258 262 262 261 259 253 248 243 232 223 221 224 226 228 227 219 212 206 204 206
264 270 269 269 271 274 276 277 277 280 282 274 249 234 236 241 248 253 257 270 264 232 238 251 258 259 256 256 254 251 245 234 224 221 221 222 223 220 213 209 207 206 202
280 277 275 277 279 278 275 277 278 278 278 284 281 238 227 237 246 250 231 237 258 267 264 261 260 259 257 257 253 250 246 233 224 220 221 219 219 214 209 208 204 204 203
283 274 271 275 278 279 280 281 281 279 282 281 277 273 240 228 247 243 218 230 247 260 268 271 269 265 260 254 250 246 242 232 222 224 224 216 214 209 205 203 199 195 198
300 295 281 271 271 273 277 280 283 282 284 285 280 274 267 266 268 272 262 241 251 263 269 274 278 278 267 251 241 241 240 232 219 219 218 211 208 205 203 201 201 200 200
304 300 297 291 283 276 277 281 283 283 285 288 283 270 239 253 269 277 279 277 269 264 263 265 273 277 276 271 255 236 233 232 223 213 208 201 202 206 206 202 198 195 195
301 298 295 291 289 288 285 283 284 284 287 289 287 290 275 269 274 276 280 283 279 281 276 262 268 273 268 261 259 243 227 224 216 205 199 199 204 202 199 203 203 194 194
305 300 298 299 299 296 292 292 288 289 291 293 293 293 295 289 286 289 292 295 295 291 280 269 265 273 278 280 272 267 242 185 204 221 213 207 200 201 205 209 210 202 198
302 301 303 304 302 301 299 298 295 294 294 297 299 301 300 302 303 294 294 292 296 294 293 289 278 277 292 291 287 318 91 98 94 279 228 212 208 206 208 213 207 201 194
305 305 307 305 307 309 306 302 297 299 299 301 305 306 318 323 315 300 293 293 297 294 298 300 302 300 297 298 329 101 125 141 138 289 275 232 222 223 214 212 204 199 191